Terug naar catalogus

FENGYUN 1C DEB

ActiefSSO
NORAD 30693·DEBRIS·🇨🇳 China

Gelanceerd May 10, 1999 vanaf Taiyuan Satellite Launch Center

Loading…

Volgende Passages (komende 24 uur)

TLE

VersSource: Space-Track

Epoch: Sep 14, 2026, 21:33 UTC

1 30693U 99025ARB 26257.89838509  .00000325  00000-0  19448-3 0  9997
2 30693  98.7129 240.4815 0030328 100.9829 259.4758 14.13579345  8345

Volg FENGYUN 1C DEB in realtime met AllMySat

Download on the App Store